Weather History for Dutch Harbor, AK

Change the Weather History Date:

Tuesday, January 22, 2013

  Actual Average Record
Temperature  
Mean Temperature 34 °F -  
Max Temperature 36 °F 37 °F 57 °F (1997)
Min Temperature 32 °F 26 °F -8 °F (1986)
Degree Days  
Heating Degree Days 31    
Moisture  
Dew Point 20 °F    
Average Humidity 57    
Maximum Humidity 64    
Minimum Humidity 48    
Precipitation  
Precipitation 0.00 in - - ()
Sea Level Pressure  
Sea Level Pressure 29.49 in    
Wind  
Wind Speed 9 mph (West)    
Max Wind Speed 18 mph    
Max Gust Speed 24 mph    
Visibility 10 miles    
Events      
Averages and records for this station are not official NWS values.
T = Trace of Precipitation, MM = Missing Value Source: NWS Daily Summary

Daily Weather History Graph

Daily Weather History Graph

Search for Another Location

Airport:

Trip Planner

Search our weather history database for the weather conditions in past years. The results will help you decide how hot, cold, wet, or windy it might be!

Date:

Astronomy

Jan. 22, 2013 Rise Set
Actual Time 10:07 AM AKST 6:29 PM AKST
Civil Twilight 9:27 AM AKST 7:09 PM AKST
Nautical Twilight 8:43 AM AKST 7:52 PM AKST
Astronomical Twilight 8:01 AM AKST 8:34 PM AKST
Moon 2:54 PM AKST (1/22) 6:47 AM AKST (1/22)
Length of Visible Light 9h 42m
Length of Day
8h 21m
Waxing Gibbous, 84% of the Moon is Illuminated
Jan 22
Waxing Gibbous
Jan 26
Full
Feb 3
Last Quarter
Feb 9
New
Feb 17
First Quarter

Hourly Weather History & Observations

Time (AKST) Temp. Windchill Dew Point Humidity Pressure Visibility Wind Dir Wind Speed Gust Speed Precip Events Conditions
12:56 AM 36.0 °F 25.6 °F 21.0 °F 55% 29.55 in 10.0 mi WNW 18.4 mph 24.2 mph N/A   Partly Cloudy
1:56 AM 36.0 °F 27.5 °F 19.9 °F 52% 29.56 in 10.0 mi WNW 12.7 mph 21.9 mph N/A   Clear
2:56 AM 35.1 °F 25.9 °F 23.0 °F 61% 29.56 in 10.0 mi West 13.8 mph - N/A   Mostly Cloudy
3:56 AM 36.0 °F 26.7 °F 21.0 °F 55% 29.56 in 10.0 mi WNW 15.0 mph - N/A   Overcast
4:56 AM 35.1 °F 30.1 °F 19.0 °F 52% 29.57 in 10.0 mi West 5.8 mph - N/A   Partly Cloudy
5:56 AM 34.0 °F 28.8 °F 21.0 °F 59% 29.56 in 10.0 mi West 5.8 mph - N/A   Mostly Cloudy
6:56 AM 32.0 °F 28.7 °F 21.0 °F 64% 29.56 in 10.0 mi NE 3.5 mph - N/A   Overcast
7:56 AM 33.1 °F - 19.9 °F 59% 29.55 in 10.0 mi Calm Calm - N/A   Overcast
8:56 AM 35.1 °F 27.4 °F 19.9 °F 54% 29.54 in 10.0 mi West 10.4 mph - N/A   Overcast
9:56 AM 34.0 °F 26.6 °F 23.0 °F 64% 29.54 in 10.0 mi West 9.2 mph - N/A   Mostly Cloudy
10:56 AM 34.0 °F 29.8 °F 19.9 °F 56% 29.54 in 10.0 mi WSW 4.6 mph - N/A   Mostly Cloudy
11:56 AM 34.0 °F 28.8 °F 21.0 °F 59% 29.53 in 10.0 mi WSW 5.8 mph - N/A   Mostly Cloudy
12:56 PM 34.0 °F 28.0 °F 19.0 °F 54% 29.52 in 10.0 mi West 6.9 mph - N/A   Mostly Cloudy
1:56 PM 34.0 °F 29.8 °F 18.0 °F 52% 29.50 in 10.0 mi SSW 4.6 mph - N/A   Mostly Cloudy
2:56 PM 35.1 °F - 17.1 °F 48% 29.48 in 10.0 mi Calm Calm - N/A   Overcast
4:56 PM 35.1 °F - 19.9 °F 54% 29.44 in 10.0 mi Calm Calm - N/A   Overcast
5:56 PM 35.1 °F - 19.0 °F 52% 29.43 in 10.0 mi Calm Calm - N/A   Overcast
6:56 PM 34.0 °F - 19.9 °F 56% 29.42 in 10.0 mi Calm Calm - N/A   Overcast
7:56 PM 34.0 °F 31.0 °F 21.0 °F 59% 29.41 in 10.0 mi South 3.5 mph - N/A   Overcast
8:56 PM 34.0 °F - 21.9 °F 61% 29.39 in 10.0 mi Calm Calm - N/A   Overcast
9:56 PM 33.1 °F - 21.9 °F 64% 29.37 in 10.0 mi Calm Calm - N/A   Overcast
10:56 PM 35.1 °F 30.1 °F 19.9 °F 54% 29.36 in 10.0 mi Variable 5.8 mph - N/A   Overcast
11:56 PM 35.1 °F 31.0 °F 23.0 °F 61% 29.35 in 10.0 mi Variable 4.6 mph - N/A   Overcast